Date,TemperatureHighF,TemperatureAvgF,TemperatureLowF,DewpointHighF,DewpointAvgF,DewpointLowF,HumidityHigh,HumidityAvg,HumidityLow,PressureMaxIn,PressureMinIn,WindSpeedMaxMPH,WindSpeedAvgMPH,GustSpeedMaxMPH,PrecipitationSumIn
2014-1-1,7.6,3.7,-1.2,0.9,-2.6,-7.1,78,74,69,30.49,30.40,9,3,13,0.00
2014-1-2,10.7,4.3,-8.1,2.6,-1.1,-10.0,86,77,67,30.52,30.36,13,4,15,0.00
2014-1-3,18.5,4.1,-13.1,13.7,0.0,-14.9,88,81,69,30.51,29.85,19,6,27,0.00
2014-1-4,32.7,24.3,14.1,28.0,11.9,-99.9,100,77,1,30.16,29.75,18,6,24,0.00
2014-1-5,14.0,3.2,-10.1,7.6,-6.8,-99.9,100,68,56,30.27,30.15,18,7,21,0.00
2014-1-6,-10.2,-14.6,-19.0,-15.6,-19.6,-24.5,76,69,60,30.32,30.19,16,6,20,0.00
2014-1-7,2.4,-7.3,-16.2,-7.3,-12.7,-19.5,80,72,58,30.41,30.30,10,2,14,0.00
2014-1-8,8.7,-3.2,-11.6,-1.6,-7.8,-13.8,87,77,60,30.62,30.39,5,1,0,0.00
2014-1-9,22.0,3.2,-15.9,19.9,-5.2,-99.9,92,82,1,30.63,30.21,6,2,0,0.00
2014-1-10,36.0,29.7,22.0,35.5,-36.5,-99.9,98,74,1,30.20,29.50,13,3,16,0.09
2014-1-11,35.6,31.7,28.0,35.1,18.4,-99.9,98,89,1,29.79,29.45,11,4,15,0.00
2014-1-12,41.3,33.5,25.3,34.2,26.4,-99.9,95,84,66,29.81,29.57,13,5,21,0.00
2014-1-13,41.1,34.3,25.1,34.1,29.6,20.8,91,83,71,29.76,29.55,16,2,16,0.00
2014-1-14,34.3,25.9,14.4,32.2,17.4,-99.9,95,88,1,29.97,29.54,19,6,23,0.00
2014-1-15,18.0,12.8,10.3,14.0,4.2,-99.9,85,78,1,30.14,29.74,14,5,18,0.00
2014-1-16,33.8,23.8,10.4,28.8,-30.8,-99.9,100,70,1,29.77,29.47,17,6,21,0.00
2014-1-17,18.7,13.2,7.9,13.9,-16.2,-99.9,86,73,1,30.02,29.77,10,3,14,0.00
2014-1-18,18.1,9.2,3.8,13.5,-13.0,-99.9,92,83,1,29.99,29.83,7,1,0,0.00
2014-1-19,34.5,24.9,8.8,34.3,-62.2,-99.9,100,70,1,29.91,29.56,10,4,17,0.01
2014-1-20,33.5,18.4,4.9,28.8,8.5,-99.9,90,82,1,30.30,29.68,13,3,19,0.00
2014-1-21,4.7,-0.7,-6.6,-3.4,-7.1,-99.9,83,72,61,30.45,30.25,15,3,19,0.00
2014-1-22,10.9,3.5,-3.0,5.6,-1.8,-9.3,86,77,67,30.31,29.97,20,5,20,0.00
2014-1-23,6.2,-1.7,-8.4,-3.8,-8.0,-12.7,77,71,59,30.68,30.31,15,6,20,0.00
2014-1-24,30.5,12.6,-9.2,28.2,6.4,-12.8,93,75,64,30.55,29.47,17,7,24,0.00
2014-1-25,31.1,13.2,3.8,28.5,-20.4,-99.9,100,57,1,29.91,29.46,22,7,29,0.00
2014-1-26,23.5,10.8,2.0,16.3,-33.3,-99.9,100,68,1,29.93,29.44,20,5,28,0.00
2014-1-27,1.8,-5.9,-12.2,-5.1,-13.0,-16.8,78,66,53,30.50,29.94,15,6,24,0.00
2014-1-28,2.4,-6.4,-15.4,-7.5,-12.4,-18.0,80,70,58,30.50,30.28,11,3,16,0.00
2014-1-29,23.2,10.0,-3.6,23.2,-37.6,-99.9,100,70,51,30.29,29.92,13,5,20,0.00
2014-1-30,30.3,24.9,14.8,27.4,-38.0,-99.9,100,74,1,29.99,29.60,16,7,22,0.00
2014-1-31,14.6,7.5,2.5,10.0,-0.0,-99.9,100,76,62,30.23,30.00,7,1,0,0.00
2014-2-1,18.4,12.8,4.8,14.5,-0.9,-99.9,88,80,1,30.20,30.03,9,1,16,0.00
2014-2-2,17.2,7.4,-6.0,16.3,-4.1,-99.9,100,80,55,30.41,30.20,7,1,0,0.00
2014-2-3,19.7,6.4,-11.9,7.3,-0.4,-13.8,89,73,54,30.46,30.39,8,2,0,0.00
2014-2-4,18.1,11.0,0.2,11.8,6.0,-2.9,90,80,68,30.52,30.30,9,1,13,0.00
2014-2-5,17.6,13.5,2.4,12.3,8.0,-1.9,89,78,68,30.51,30.27,14,5,17,0.00
2014-2-6,7.8,-0.5,-6.8,-1.8,-5.9,-9.1,86,75,58,30.50,30.40,12,3,17,0.00
2014-2-7,14.1,4.0,-4.1,0.9,-3.2,-7.4,83,71,51,30.41,30.34,14,3,14,0.00
2014-2-8,15.1,6.3,-7.6,9.4,2.9,-9.8,90,85,77,30.38,30.21,7,1,0,0.00
2014-2-9,18.0,7.8,-0.7,8.5,2.0,-7.2,91,77,58,30.41,30.20,14,2,14,0.00
2014-2-10,9.2,0.2,-5.9,-2.8,-6.9,-10.4,78,69,56,30.58,30.41,7,2,0,0.00
2014-2-11,13.3,1.1,-12.9,-0.5,-6.1,-14.7,87,70,50,30.61,30.41,9,2,0,0.00
2014-2-12,18.5,10.5,0.8,13.2,5.5,-5.2,92,80,71,30.41,30.06,10,2,13,0.00
2014-2-13,29.2,21.3,15.4,25.1,16.3,10.2,90,81,69,30.06,29.54,17,5,19,0.00
2014-2-14,21.8,13.7,6.7,12.4,7.4,0.8,88,76,64,30.06,29.67,13,4,16,0.00
2014-2-15,19.3,10.6,-5.0,13.5,4.8,-7.4,91,77,61,30.16,30.02,8,2,0,0.00
2014-2-16,23.2,16.3,12.4,14.3,11.5,7.4,92,81,66,30.34,30.03,7,2,0,0.00
2014-2-17,25.0,21.8,16.2,22.5,18.5,-99.9,93,89,81,30.31,29.76,19,4,24,0.00
2014-2-18,44.6,31.8,19.5,32.4,11.2,-99.9,100,75,1,29.94,29.63,13,3,17,0.13
2014-2-19,46.8,36.5,27.0,39.1,27.0,23.9,100,70,43,29.96,29.69,7,2,0,0.00
2014-2-20,40.3,34.4,32.9,39.3,31.1,27.9,96,87,81,29.91,29.10,19,6,26,0.49
2014-2-21,34.9,22.8,17.7,31.3,16.0,11.8,87,75,61,29.82,29.18,22,9,29,0.00
2014-2-22,29.9,20.0,12.3,14.1,9.8,-99.9,78,66,46,30.14,29.82,13,4,17,0.00
2014-2-23,24.7,14.5,7.4,24.2,3.8,-99.9,100,67,49,30.28,30.14,15,4,20,0.00
2014-2-24,22.0,14.1,6.5,20.0,4.6,1.0,100,66,50,30.34,30.26,13,4,18,0.00
2014-2-25,14.5,9.3,0.6,6.6,0.5,-6.2,88,67,49,30.32,30.21,13,4,18,0.00
2014-2-26,13.8,4.1,-6.0,11.2,-4.1,-10.2,89,67,46,30.33,29.70,17,6,25,0.00
2014-2-27,9.0,1.0,-6.6,-0.3,-10.1,-13.4,79,56,39,30.27,29.77,20,5,25,0.00
2014-2-28,21.3,9.5,-8.8,16.9,1.9,-99.9,90,71,60,30.27,30.05,12,3,18,0.00
2014-3-1,18.1,10.2,3.6,15.7,4.8,-3.6,90,78,65,30.48,30.13,12,6,19,0.00
2014-3-2,6.9,1.1,-3.5,-3.4,-10.1,-13.9,71,56,41,30.60,30.47,13,6,16,0.00
2014-3-3,18.1,5.2,-9.6,2.6,-6.2,-14.8,72,57,39,30.64,30.42,8,2,0,0.00
2014-3-4,21.8,15.0,8.8,12.4,8.8,2.9,88,76,62,30.42,30.26,6,2,0,0.00
2014-3-5,22.8,14.9,0.7,13.5,9.0,-2.3,89,77,61,30.55,30.34,5,1,0,0.00
2014-3-6,28.7,16.2,-0.1,26.4,9.2,-99.9,100,79,60,30.53,30.10,12,2,14,0.00
2014-3-7,44.3,32.3,17.8,32.4,20.6,-99.9,100,76,57,30.10,29.88,10,4,14,0.10
2014-3-8,34.5,28.6,18.7,29.6,21.2,13.9,85,74,58,30.29,30.09,7,2,13,0.00
2014-3-9,39.2,28.9,17.0,33.9,22.3,12.8,86,76,62,30.27,29.78,17,4,20,0.00
2014-3-10,58.4,46.1,36.8,39.1,36.1,33.0,86,69,48,29.78,29.62,10,2,15,0.00
2014-3-11,43.1,39.6,34.3,37.7,34.8,30.8,95,83,70,29.85,29.68,7,1,12,0.03
2014-3-12,34.1,25.6,11.6,30.9,17.8,6.7,88,72,53,30.17,29.83,13,2,16,0.00
2014-3-13,38.0,26.5,9.4,34.2,20.4,5.0,92,78,69,30.16,29.79,14,4,20,0.00
2014-3-14,49.2,41.6,36.6,35.7,33.1,29.3,91,72,55,29.85,29.55,18,5,24,0.00
2014-3-15,36.5,31.6,25.3,29.6,22.4,20.1,83,69,54,30.37,29.85,16,3,22,0.00
2014-3-16,27.3,18.6,9.4,20.1,10.2,3.1,81,69,54,30.50,30.24,9,2,13,0.00
2014-3-17,36.4,24.2,9.4,24.8,14.7,6.2,89,69,42,30.24,29.80,12,3,18,0.00
2014-3-18,46.8,35.7,27.3,34.7,29.9,23.8,90,80,62,29.89,29.73,12,4,18,0.06
2014-3-19,37.8,34.6,32.8,34.9,31.5,23.6,97,89,68,30.01,29.62,16,4,20,0.20
2014-3-20,44.1,34.0,23.2,29.0,25.8,20.8,92,73,51,30.09,30.00,9,2,0,0.00
2014-3-21,50.3,38.3,23.9,40.7,31.0,21.1,92,75,62,30.05,29.74,18,4,26,0.00
2014-3-22,37.9,30.4,19.6,29.7,20.5,8.7,83,67,43,30.43,29.92,17,7,26,0.00
2014-3-23,27.7,20.0,13.1,10.3,8.0,5.3,73,60,44,30.53,30.42,14,5,18,0.00
2014-3-24,34.9,25.0,14.6,24.9,14.8,8.1,93,66,44,30.45,30.10,15,3,22,0.00
2014-3-25,24.6,19.0,12.0,21.7,9.4,5.0,93,67,47,30.31,30.08,16,5,22,0.00
2014-3-26,36.9,24.2,6.8,24.5,14.1,3.3,88,67,49,30.36,29.94,17,4,22,0.00
2014-3-27,46.8,39.0,34.6,45.4,35.5,24.3,96,88,57,29.93,29.42,14,5,19,0.34
2014-3-28,41.8,35.4,31.4,40.7,31.2,28.4,97,85,69,30.23,29.44,17,4,23,0.10
2014-3-29,46.5,36.7,27.2,32.1,28.4,25.0,94,73,53,30.33,30.23,8,1,0,0.00
2014-3-30,57.3,42.1,25.5,40.3,31.0,20.2,81,66,50,30.30,30.00,18,4,19,0.00
2014-3-31,65.2,53.6,43.4,46.6,40.9,35.9,82,63,46,30.02,29.59,28,7,28,0.46
2014-4-1,55.2,35.8,25.8,45.3,26.1,20.1,81,68,53,30.13,29.58,17,6,23,0.00
2014-4-2,51.1,36.3,21.0,32.7,26.5,19.0,95,69,45,30.25,30.13,7,1,0,0.12
2014-4-3,39.5,36.6,34.6,33.4,28.5,24.5,92,73,64,30.14,29.69,12,3,19,0.00
2014-4-4,37.5,34.4,33.2,34.1,31.5,27.9,97,89,79,30.05,29.49,19,5,29,0.10
2014-4-5,52.8,40.3,26.0,31.8,27.4,23.7,93,63,38,30.23,30.05,11,2,13,0.00
2014-4-6,59.1,47.1,34.3,39.5,34.1,27.6,80,62,47,30.15,29.94,13,4,17,0.00
2014-4-7,62.4,49.5,39.3,45.9,40.1,33.5,94,71,47,29.94,29.66,8,2,14,0.34
2014-4-8,57.0,46.9,37.7,43.4,38.0,31.0,93,73,45,29.97,29.69,14,4,18,2.09
2014-4-9,62.7,48.4,26.2,35.7,30.9,23.4,93,55,30,30.03,29.73,14,4,19,2.79
2014-4-10,63.5,54.6,39.7,41.1,30.8,21.0,62,42,21,29.97,29.63,17,4,20,5.51
2014-4-11,66.8,52.1,37.9,39.4,31.6,23.9,73,47,26,30.04,29.93,15,2,19,1.54
2014-4-12,60.9,49.5,44.7,49.4,40.7,31.9,94,72,58,30.03,29.69,18,3,31,1.65
2014-4-13,52.0,47.4,42.0,49.9,46.3,40.7,98,96,90,29.81,29.53,12,2,24,2.80
2014-4-14,41.7,32.1,26.2,40.4,29.3,21.1,97,90,80,30.08,29.51,17,8,24,0.33
2014-4-15,36.4,28.1,17.7,21.6,18.1,15.0,92,67,47,30.25,30.08,10,2,16,0.00
2014-4-16,51.3,39.8,27.2,33.6,27.7,19.2,81,63,49,30.29,30.07,17,6,28,0.01
2014-4-17,54.7,45.5,34.4,41.7,35.7,29.9,89,69,58,30.32,30.03,19,5,23,0.00
2014-4-18,57.2,41.6,26.7,36.2,31.6,25.3,96,70,40,30.42,30.32,10,2,13,0.00
2014-4-19,67.0,49.2,32.6,42.8,34.6,26.7,80,60,37,30.42,30.19,15,4,19,1.49
2014-4-20,76.5,61.4,52.6,55.3,46.7,40.2,90,60,38,30.20,29.97,12,3,18,4.26
2014-4-21,69.1,60.6,52.0,60.2,54.2,39.4,93,80,59,29.97,29.79,14,2,20,6.10
2014-4-22,56.7,47.2,38.1,39.4,32.5,28.1,77,58,34,30.13,29.88,23,6,24,0.00
2014-4-23,56.7,43.2,28.8,35.1,30.7,26.0,93,64,38,30.22,30.06,9,2,0,0.14
2014-4-24,55.2,44.9,34.8,47.6,39.9,29.6,94,83,69,30.14,29.66,14,3,18,0.37
2014-4-25,66.1,53.6,41.9,48.7,41.4,36.0,96,67,34,29.86,29.70,17,4,21,1.80
2014-4-26,53.4,44.8,35.7,39.5,34.9,31.1,85,69,55,30.08,29.86,8,3,15,0.00
2014-4-27,52.2,44.1,40.3,41.3,36.8,31.0,90,76,53,30.11,29.86,18,4,22,0.30
2014-4-28,48.7,44.5,41.2,43.1,39.6,36.4,92,83,72,29.88,29.64,19,6,23,0.51
2014-4-29,50.0,48.8,48.0,48.6,47.4,46.6,96,95,94,29.64,29.61,5,2,0,0.44
2014-4-30,48.9,45.8,42.2,46.9,42.6,38.3,97,89,77,29.76,29.64,10,3,15,0.02
2014-5-1,50.5,43.9,39.3,44.9,41.2,37.8,96,90,75,29.82,29.65,8,2,14,0.06
2014-5-2,52.6,47.6,44.1,45.5,43.1,41.1,95,85,70,29.82,29.64,9,2,14,0.02
2014-5-3,63.0,52.9,43.5,45.4,40.7,36.1,96,67,38,29.89,29.64,17,5,27,0.00
2014-5-4,61.2,50.8,42.8,37.0,32.3,27.0,75,51,29,30.10,29.90,11,3,16,1.59
2014-5-5,60.6,50.0,41.7,41.0,36.5,32.0,82,61,39,30.08,29.97,11,2,14,0.00
2014-5-6,63.5,50.7,36.8,45.7,38.7,31.8,86,65,47,30.07,29.91,13,3,17,1.31
2014-5-7,62.0,53.7,47.0,51.7,45.7,36.3,88,75,64,29.92,29.79,13,3,17,0.01
2014-5-8,83.9,69.8,51.5,67.1,60.0,49.0,93,73,45,29.81,29.68,12,4,24,3.04
2014-5-9,71.6,61.4,50.2,62.6,53.2,44.6,90,75,63,29.83,29.58,16,5,19,0.63
2014-5-10,74.1,59.3,41.3,49.3,44.7,39.1,95,62,35,29.96,29.84,8,1,0,0.08
2014-5-11,78.6,66.0,55.7,65.7,56.2,44.9,93,71,56,29.92,29.84,11,2,22,0.78
2014-5-12,71.7,66.4,62.8,67.9,64.2,60.7,96,93,86,29.87,29.76,11,4,14,0.16
2014-5-15,53.2,47.8,42.5,39.8,37.7,35.2,78,69,51,30.08,30.01,8,2,12,0.12
2014-5-16,51.3,44.7,37.5,37.0,33.3,29.9,91,66,46,30.10,30.05,8,1,0,0.00
2014-5-17,61.4,50.6,36.2,37.2,33.6,30.8,84,55,33,30.14,30.08,9,2,16,0.00
2014-5-18,72.3,60.2,47.4,43.2,38.5,35.3,64,46,30,30.19,30.11,12,3,13,1.88
2014-5-19,64.6,56.6,49.3,51.7,46.4,41.5,85,69,54,30.19,29.84,14,4,25,0.18
2014-5-20,86.6,71.6,59.2,67.7,60.6,49.4,90,70,45,29.90,29.78,9,2,12,4.81
2014-5-21,83.1,70.2,56.2,66.5,55.7,42.6,98,65,26,30.00,29.78,16,4,19,1.57
2014-5-22,73.1,61.9,51.0,50.9,48.4,46.8,87,63,40,30.14,30.00,12,3,15,0.95
2014-5-23,73.3,61.1,44.5,53.7,47.8,42.0,94,64,44,30.23,30.14,8,1,12,0.00
2014-5-24,76.4,62.8,43.3,50.5,46.1,40.6,91,58,34,30.25,30.12,9,1,13,0.00
2014-5-25,84.4,69.5,47.2,56.4,50.6,44.2,91,55,31,30.14,29.97,9,2,18,0.00
2014-5-26,85.1,73.8,68.4,70.2,65.1,55.7,93,75,55,29.99,29.87,11,2,19,0.48
2014-5-27,84.6,71.2,61.4,72.7,67.1,60.2,96,88,53,29.97,29.84,7,2,17,1.06
2014-5-28,75.8,64.7,54.4,60.2,54.0,48.7,96,70,47,30.09,29.91,6,1,0,0.00
2014-5-29,82.6,67.2,52.5,64.6,56.2,49.0,91,70,43,30.15,30.07,11,1,12,0.00
2014-5-30,84.8,69.3,50.6,62.8,56.0,49.2,97,66,35,30.20,30.11,9,1,12,0.00
2014-5-31,87.8,74.6,59.2,60.8,55.8,52.0,78,55,32,30.17,30.00,12,3,14,0.00
2014-6-1,87.7,75.5,68.6,72.3,64.0,56.3,97,69,51,30.03,29.77,17,4,22,1.42
2014-6-2,80.8,73.5,64.9,69.8,66.6,60.3,97,80,59,29.83,29.69,13,4,17,1.15
2014-6-3,76.9,68.8,61.2,60.5,55.7,51.7,81,64,46,29.96,29.77,14,3,16,0.00
2014-6-4,73.5,65.6,55.9,62.8,59.1,54.2,94,80,65,29.94,29.79,5,1,0,0.10
2014-6-5,78.9,66.7,51.0,56.8,51.7,48.3,99,63,36,30.01,29.91,10,1,0,0.00
2014-6-6,83.2,71.9,61.0,58.9,54.4,49.4,74,55,40,29.99,29.92,7,1,13,0.00
2014-6-7,81.7,68.5,55.9,64.0,56.4,47.3,93,67,47,29.98,29.85,15,2,21,0.29
2014-6-8,74.8,65.1,56.6,60.5,54.9,44.3,95,72,46,30.07,29.91,10,2,15,0.00
2014-6-9,79.2,64.5,48.2,62.1,53.4,44.1,88,69,52,30.07,29.93,4,0,0,0.00
2014-6-10,70.2,63.8,56.1,58.5,53.7,48.0,79,70,61,29.98,29.84,4,0,0,0.00
2014-6-11,73.4,64.4,56.2,63.2,58.3,53.9,93,81,67,29.84,29.74,12,1,13,0.03
2014-6-12,74.8,65.0,52.5,65.1,55.2,47.4,98,73,51,29.88,29.73,13,3,16,0.00
2014-6-13,74.0,62.2,52.5,48.0,42.9,38.2,80,52,28,30.01,29.88,16,4,21,0.00
2014-6-14,79.3,67.0,48.0,54.2,48.9,44.2,89,55,34,30.08,29.89,12,3,21,0.00
2014-6-15,83.9,72.1,60.8,66.7,58.1,49.0,75,62,49,29.93,29.71,19,5,26,0.00
2014-6-16,86.8,76.1,59.9,70.3,62.4,57.6,94,65,30,30.01,29.78,9,2,15,0.00
2014-6-17,85.9,75.2,66.8,70.9,67.1,64.8,97,78,54,29.88,29.67,12,2,18,0.77
2014-6-18,79.5,71.7,62.1,72.7,66.7,60.4,97,85,68,30.02,29.78,21,2,30,0.98
2014-6-19,74.7,67.6,63.6,68.9,65.1,62.3,97,92,79,30.12,29.99,8,2,16,0.75
2014-6-20,84.0,72.7,63.9,72.4,68.2,62.7,98,87,60,30.00,29.90,8,2,0,1.66
2014-6-21,82.7,70.0,62.8,71.7,66.4,62.2,99,89,61,29.96,29.84,8,2,0,0.02
2014-6-22,82.1,71.7,61.5,72.2,64.7,-99.9,99,86,1,29.92,29.80,8,1,0,0.22
2014-6-23,83.4,73.8,64.8,70.9,67.8,63.6,97,83,60,29.85,29.77,6,1,0,1.31
2014-6-24,84.5,75.0,65.1,69.4,65.5,-99.9,98,76,48,29.89,29.82,9,2,0,0.00
2014-6-25,76.7,68.6,62.9,68.5,64.8,61.1,96,88,73,30.04,29.89,4,0,0,0.00
2014-6-26,81.7,69.7,60.2,67.8,63.2,59.1,97,81,60,30.09,29.97,7,1,0,0.00
2014-6-27,86.6,75.7,63.4,71.0,66.5,59.7,91,74,57,30.01,29.87,13,4,17,3.04
2014-6-28,86.5,78.2,69.8,74.9,70.9,66.7,91,79,65,29.96,29.81,17,5,22,0.00
2014-6-29,82.9,75.2,65.7,73.3,68.8,64.4,97,81,64,29.90,29.76,14,4,19,1.13
2014-6-30,86.8,72.8,66.3,76.7,42.0,-99.9,97,81,1,29.82,29.54,14,4,21,1.45
2014-7-1,78.2,69.9,63.5,67.1,46.7,-99.9,96,77,1,29.74,29.59,12,4,22,0.02
2014-7-2,66.3,61.5,57.7,63.4,-44.5,-99.9,100,71,1,30.04,29.74,11,3,15,0.00
2014-7-3,75.1,63.9,49.4,54.8,10.7,-99.9,100,67,1,30.20,30.03,10,2,12,0.01
2014-7-4,80.5,68.5,52.4,59.6,28.5,-99.9,100,59,1,30.31,30.20,6,1,0,0.00
2014-7-5,76.2,67.8,59.2,61.8,9.8,-99.9,100,72,1,30.24,30.00,12,4,19,0.31
2014-7-6,80.5,73.1,63.3,74.6,68.2,59.8,92,85,77,30.00,29.66,15,3,15,7.93
2014-7-7,83.6,76.0,66.0,73.2,63.5,-99.9,94,74,1,29.74,29.60,11,2,16,5.55
2014-7-8,77.9,69.8,61.1,67.6,8.6,-99.9,95,68,1,29.82,29.58,15,4,19,0.27
2014-7-9,74.9,65.4,55.6,59.8,-15.7,-99.9,100,60,1,30.06,29.82,14,3,19,0.00
2014-7-10,79.9,68.2,51.4,68.9,45.9,51.3,100,59,1,30.16,30.06,8,2,12,2.89
2014-7-11,77.2,70.3,60.9,62.7,52.3,57.5,100,69,1,30.18,30.05,10,3,14,0.00
2014-7-12,77.9,72.8,65.9,73.8,68.0,62.7,96,85,76,30.07,29.82,12,2,16,0.13
2014-7-13,81.6,71.1,63.0,69.0,53.4,57.6,97,73,1,29.92,29.85,12,3,17,0.66
2014-7-14,70.5,61.1,55.4,60.2,8.3,58.8,100,36,1,29.89,29.83,6,1,0,0.00
2014-7-15,70.5,58.3,55.7,54.4,8.5,52.7,87,83,70,29.97,29.84,2,0,0,0.00
2014-7-16,75.0,60.2,46.3,65.4,24.3,47.1,100,46,1,30.06,29.97,9,1,0,0.03
2014-7-17,77.5,63.4,47.4,58.6,33.8,46.1,100,60,1,30.10,30.04,5,1,18,0.00
2014-7-18,80.3,69.4,52.7,66.6,44.1,51.1,100,57,1,30.15,30.06,8,2,0,0.00
2014-7-19,79.7,70.3,59.2,66.7,50.9,57.4,100,61,1,30.08,29.99,9,2,13,0.00
2014-7-20,81.5,71.7,59.6,66.3,50.6,56.9,90,65,1,30.04,29.95,10,3,13,0.29
2014-7-21,87.0,76.6,65.2,71.2,67.1,61.9,90,74,57,30.05,29.97,11,4,16,0.00
2014-7-22,91.6,80.5,71.7,80.2,72.1,64.8,89,76,61,30.02,29.85,12,4,18,0.00
2014-7-23,79.4,69.5,57.0,65.1,31.1,55.4,100,66,1,30.17,30.03,12,1,13,0.00
2014-7-24,79.0,66.4,50.9,58.9,33.7,50.5,100,51,1,30.18,29.99,6,1,0,0.00
2014-7-25,74.4,66.0,61.1,67.9,34.0,54.9,100,84,1,30.04,29.86,16,3,17,0.00
2014-7-26,81.0,72.2,63.0,72.3,64.5,60.6,96,83,1,29.88,29.74,8,1,12,0.00
2014-7-27,77.4,70.4,61.1,68.8,60.1,55.5,100,79,1,29.98,29.72,15,4,22,0.03
2014-7-28,73.0,63.6,53.3,63.0,35.1,51.1,100,67,1,30.13,29.98,12,4,17,0.00
2014-7-29,78.7,66.3,55.2,68.0,36.9,53.0,100,59,1,30.07,29.98,13,2,22,0.00
2014-7-30,76.3,65.2,56.7,61.8,28.2,52.8,100,72,1,30.06,29.99,7,2,0,0.00
2014-7-31,80.8,70.2,61.2,64.5,36.0,56.6,100,58,1,30.01,29.97,11,1,13,0.00
2014-8-1,84.7,68.6,56.3,71.7,21.9,59.3,100,67,1,30.11,30.00,9,1,16,0.38
2014-8-2,85.2,70.7,54.5,67.2,36.9,61.0,95,53,1,30.14,30.06,5,0,0,0.11
2014-8-3,84.0,72.7,60.4,68.8,43.2,60.5,95,77,54,30.12,30.03,9,1,13,0.15
2014-8-4,80.4,67.6,62.7,70.1,24.4,61.6,98,62,1,30.08,30.02,11,1,23,0.91
2014-8-5,81.2,69.2,63.1,69.3,42.1,62.6,99,70,1,30.09,30.02,5,0,0,0.00
2014-8-6,82.4,69.6,55.5,64.1,37.1,55.0,99,52,1,30.09,30.03,5,0,0,0.00
2014-8-7,83.3,69.9,55.1,62.8,33.5,52.7,100,56,1,30.11,30.02,9,1,14,0.00
2014-8-8,83.5,70.9,56.1,67.2,35.4,55.1,100,63,1,30.10,30.04,10,1,16,0.00
2014-8-9,82.9,71.0,59.0,65.5,33.7,54.1,100,53,1,30.12,30.06,7,1,13,0.00
2014-8-10,84.9,70.4,58.5,67.1,39.2,55.2,90,59,1,30.08,29.97,8,0,0,0.00
2014-8-11,81.6,69.6,61.8,69.9,43.7,58.8,100,63,1,29.98,29.78,13,2,18,0.26
2014-8-12,74.8,64.9,57.0,65.4,30.7,52.6,100,53,1,29.98,29.83,16,6,22,0.00
2014-8-13,80.8,67.1,54.0,65.0,32.8,51.1,100,72,1,30.05,29.97,10,2,14,0.00
2014-8-14,73.5,61.5,48.6,60.9,25.7,47.9,100,47,1,30.14,30.04,6,1,0,0.00
2014-8-15,80.5,65.0,45.3,64.0,49.7,44.0,100,74,1,30.08,29.93,9,2,12,0.00
2014-8-16,84.6,72.8,62.4,71.0,58.7,60.4,97,72,1,29.93,29.84,7,1,0,0.01
2014-8-17,79.9,69.1,62.0,66.2,44.2,54.6,100,66,1,30.02,29.92,8,1,0,0.00
2014-8-18,83.5,70.7,58.6,70.6,44.2,57.7,96,61,1,29.94,29.70,11,3,14,0.00
2014-8-19,82.0,72.2,64.1,70.3,59.9,62.6,97,77,1,29.77,29.64,10,2,16,0.78
2014-8-20,85.5,72.8,60.3,71.1,47.6,59.3,97,63,1,29.92,29.77,11,1,0,0.00
2014-8-21,77.1,71.7,66.1,73.1,65.4,64.6,97,90,1,29.97,29.86,9,2,13,0.29
2014-8-22,90.7,79.2,71.8,78.3,74.0,71.2,99,86,60,29.94,29.86,7,1,0,0.00
2014-8-23,80.3,74.7,72.9,75.0,73.2,69.8,98,95,83,29.99,29.88,5,1,0,0.00
2014-8-24,86.5,77.1,70.1,77.8,72.4,68.7,96,87,73,29.99,29.91,10,3,15,0.00
2014-8-25,77.8,73.5,67.7,76.4,70.8,66.3,97,92,81,30.05,29.91,13,2,21,0.57
2014-8-26,77.5,69.9,61.8,70.2,58.3,58.6,97,75,1,30.16,29.98,9,2,17,0.00
2014-8-27,77.5,67.9,58.1,63.3,41.1,57.7,96,57,1,30.17,30.08,5,0,0,0.01
2014-8-28,75.7,66.2,55.1,63.6,40.8,55.8,100,66,1,30.14,30.00,8,2,13,0.81
2014-8-29,85.3,74.4,63.5,74.6,68.1,60.2,97,83,1,30.00,29.78,11,3,16,1.15
2014-8-30,79.2,72.4,65.8,71.4,68.7,64.6,96,88,72,29.88,29.74,14,3,14,0.36
2014-8-31,85.2,73.0,60.3,71.5,64.1,59.6,99,80,1,29.92,29.77,10,2,13,1.15
2014-9-1,77.0,71.1,62.8,70.8,66.1,60.1,95,85,72,29.83,29.62,11,2,14,0.00
2014-9-2,78.0,65.9,55.8,63.6,42.8,55.8,98,63,1,29.95,29.83,9,1,0,0.01
2014-9-3,82.7,70.4,56.0,67.4,41.7,56.4,98,66,1,30.00,29.83,10,3,18,0.17
2014-9-4,84.7,75.9,67.0,74.7,69.8,65.1,95,82,68,29.89,29.79,17,6,24,0.76
2014-9-5,79.0,70.7,58.7,74.9,63.8,54.8,92,79,57,30.11,29.81,12,4,19,0.00
2014-9-6,74.7,62.1,51.6,61.3,29.5,51.0,100,60,1,30.19,30.10,9,2,13,0.00
2014-9-7,80.6,64.0,49.5,67.0,29.9,52.8,100,62,1,30.19,30.08,5,0,0,3.11
2014-9-8,75.7,66.3,53.9,68.3,36.9,51.9,100,51,1,30.10,29.94,11,2,17,0.00
2014-9-9,79.7,69.4,57.9,67.3,50.9,55.7,92,61,1,29.95,29.80,7,2,12,0.01
2014-9-10,74.4,65.0,56.5,71.4,48.8,53.5,97,90,1,29.92,29.46,17,5,26,0.56
2014-9-11,56.5,55.9,45.0,43.9,0.3,43.8,100,90,1,30.32,29.93,13,3,19,0.00
2014-9-12,45.0,45.0,45.0,-99.9,0.0,200.0,1,1,1,30.41,30.30,8,1,0,0.18
2014-9-13,57.1,47.0,45.0,-99.9,0.0,200.0,100,15,1,30.38,30.29,9,1,13,0.01
2014-9-14,66.2,57.3,52.8,66.1,1.7,48.9,100,60,1,30.32,30.13,10,2,16,0.00
2014-9-15,61.0,57.8,45.0,-99.9,0.0,200.0,92,65,59,30.20,30.12,8,1,12,0.26
2014-9-16,63.8,45.8,42.3,60.8,0.5,46.2,100,93,55,30.23,30.08,7,1,0,0.00
2014-9-17,71.0,53.0,43.1,53.5,14.4,49.2,100,54,1,30.07,29.96,7,1,0,0.00
2014-9-18,67.6,57.2,49.1,57.5,9.0,54.8,100,49,1,30.18,30.03,7,1,0,0.00
2014-9-19,66.2,56.5,52.5,56.6,0.9,56.3,100,5,1,30.15,30.08,9,3,12,0.01
2014-9-20,76.7,71.3,60.6,67.5,63.5,59.0,95,78,64,29.80,29.68,18,3,20,0.11
2014-9-21,63.6,57.1,52.3,63.0,5.9,46.8,100,30,1,30.17,29.71,16,5,22,0.00
2014-9-22,69.0,52.3,38.5,52.9,12.7,49.4,100,35,1,30.28,30.18,8,1,13,0.00
2014-9-23,74.9,63.0,57.0,55.9,21.5,51.4,100,81,45,30.32,30.23,7,1,0,0.00
2014-9-24,73.7,62.3,52.8,59.4,31.5,49.7,100,63,1,30.33,30.23,8,1,13,0.00
2014-9-25,78.6,65.3,51.7,66.8,33.5,49.6,100,52,1,30.28,30.19,6,1,0,0.00
2014-9-26,81.3,66.7,56.9,67.6,33.4,54.9,100,70,42,30.26,30.17,9,1,0,0.00
2014-9-27,82.6,68.3,56.9,61.8,35.1,52.7,100,71,1,30.25,30.13,7,1,12,0.00
2014-9-28,82.3,66.6,55.9,61.8,27.0,58.0,85,66,1,30.17,30.03,3,0,0,0.00
2014-9-29,81.4,64.8,57.3,63.6,19.3,54.8,87,78,1,30.04,29.92,17,2,17,0.06
2014-9-30,57.3,57.3,57.3,-99.9,0.0,200.0,87,87,87,30.07,30.01,5,1,0,0.00
2014-10-1,69.1,61.1,57.3,65.8,14.5,54.4,100,81,63,30.03,29.84,10,3,14,0.00
2014-10-2,70.8,63.9,59.4,66.2,32.4,61.2,93,65,1,29.85,29.57,8,1,13,0.09
2014-10-3,63.8,58.5,58.2,61.6,2.6,59.8,93,6,1,29.75,29.53,17,6,23,0.69
2014-10-4,58.2,40.3,35.8,39.8,13.8,30.6,100,89,1,29.76,29.66,14,4,19,0.08
2014-10-5,42.4,42.4,42.4,-99.9,0.0,200.0,92,92,92,29.74,29.58,12,2,13,0.00
2014-10-6,56.6,47.8,42.4,56.5,0.3,36.5,100,94,47,29.59,29.53,11,2,17,0.00
2014-10-7,63.1,58.1,56.3,-99.9,0.0,200.0,100,100,100,29.83,29.55,13,2,16,0.00
2014-10-8,63.9,46.6,40.7,63.4,0.6,37.7,100,31,1,30.04,29.83,19,3,22,0.00
2014-10-9,53.8,40.2,35.7,43.9,2.5,31.6,100,90,1,30.19,30.04,11,2,13,0.00
2014-10-10,50.3,37.2,36.1,41.7,1.1,32.6,100,40,1,30.24,30.16,7,0,0,0.00
2014-10-11,59.3,40.5,27.5,50.6,1.9,26.5,100,67,1,30.32,30.17,6,1,0,0.00
2014-10-12,61.6,49.0,37.3,48.9,2.0,41.2,100,81,1,30.17,29.88,17,2,17,0.06
2014-10-13,61.1,55.1,50.3,52.8,0.5,52.0,97,24,1,29.88,29.51,6,1,0,1.49
2014-10-14,61.9,55.0,50.1,59.4,0.8,55.1,96,8,1,29.73,29.40,12,4,23,0.17
2014-10-15,51.5,50.0,48.4,50.4,1.9,48.3,97,17,1,29.91,29.72,13,4,17,0.03
2014-10-16,65.8,54.7,48.6,65.8,5.3,48.1,100,59,1,29.88,29.57,7,1,12,0.00
2014-10-17,56.5,54.4,46.1,41.9,0.6,41.8,100,84,1,29.92,29.54,15,4,20,0.00
2014-10-18,48.2,44.3,34.7,47.6,10.4,32.2,100,65,1,30.23,29.92,13,3,17,0.00
2014-10-19,53.0,44.0,34.7,45.5,0.5,45.3,100,51,1,30.21,29.83,13,3,18,0.00
2014-10-20,58.7,51.1,46.1,50.9,5.4,43.1,100,59,1,30.05,29.79,15,3,19,0.00
2014-10-21,49.0,43.0,30.6,47.4,8.7,32.8,100,67,1,30.32,30.05,7,1,0,0.00
2014-10-22,58.9,41.3,25.6,42.7,11.7,24.6,100,51,1,30.41,30.24,8,2,12,0.00
2014-10-23,51.8,45.9,37.0,42.7,6.8,34.4,100,72,1,30.24,30.06,9,1,13,0.12
2014-10-24,61.5,53.1,48.4,59.1,11.0,48.1,100,64,1,30.08,29.90,6,1,0,0.00
2014-10-25,67.3,58.3,49.2,64.9,22.8,30.7,100,54,1,29.99,29.88,17,4,21,0.01
2014-10-26,64.2,51.3,33.5,57.3,15.2,25.5,100,67,24,30.05,29.81,7,1,0,0.00
2014-10-27,74.3,63.0,49.2,64.6,49.5,39.9,100,73,62,29.81,29.51,12,4,16,0.08
2014-10-28,65.6,51.1,44.9,59.3,13.0,37.0,100,69,1,29.91,29.56,18,5,21,0.00
2014-10-29,47.4,41.4,30.2,47.3,19.1,30.2,100,77,1,30.17,29.91,17,4,20,0.00
2014-10-30,49.0,40.4,30.6,45.8,7.4,34.1,100,31,1,30.16,30.09,15,1,18,0.00
2014-10-31,43.5,34.4,27.2,42.0,10.5,21.3,100,58,1,30.49,30.10,21,8,31,0.00
2014-11-1,44.5,31.8,21.6,43.8,8.0,18.0,100,77,1,30.56,30.43,4,1,0,0.00
2014-11-2,53.4,41.0,29.2,51.0,11.3,25.2,100,32,1,30.43,30.10,15,4,18,0.00
2014-11-3,59.8,50.3,40.1,54.3,32.3,26.9,100,64,52,30.12,29.84,15,3,17,0.18
2014-11-4,59.2,49.7,40.4,56.7,40.8,33.5,100,79,56,30.04,29.77,13,5,20,0.01
2014-11-5,52.8,45.1,35.7,50.1,34.5,31.6,100,76,1,30.13,29.81,15,2,16,0.06
2014-11-6,46.0,38.2,32.8,42.6,26.3,27.3,100,85,1,30.28,29.80,17,7,25,0.04
2014-11-7,42.6,36.8,29.5,34.8,11.2,27.2,100,52,1,30.25,29.75,11,3,17,0.02
2014-11-8,44.5,39.9,35.1,38.3,20.6,26.3,100,78,1,29.97,29.71,17,5,22,0.04
2014-11-9,48.8,40.8,35.1,35.8,16.3,31.8,100,67,1,29.92,29.74,15,3,21,0.03
2014-11-10,56.6,43.8,36.8,56.6,22.5,37.7,100,54,1,29.86,29.49,13,2,16,0.01
2014-11-11,39.4,33.7,25.3,37.7,6.8,18.8,100,34,1,30.18,29.62,17,7,25,0.03
2014-11-12,27.2,23.3,19.1,19.0,15.9,13.5,100,74,1,30.35,30.19,10,4,17,0.00
2014-11-13,27.1,23.9,22.2,19.9,17.4,14.3,89,76,64,30.37,30.32,12,4,18,0.00
2014-11-14,24.4,19.6,8.8,17.8,13.7,6.3,91,78,61,30.43,30.36,7,1,0,0.00
2014-11-15,26.3,18.0,5.8,19.6,13.1,3.5,92,82,53,30.44,30.26,5,1,0,0.00
2014-11-16,27.2,21.0,9.1,23.7,17.6,4.7,93,86,79,30.26,29.93,10,2,14,0.00
2014-11-17,15.0,10.5,6.6,8.3,5.2,3.5,89,79,66,30.00,29.87,12,4,19,0.00
2014-11-18,16.7,13.0,8.0,9.8,6.3,3.4,83,74,63,30.13,29.99,12,4,15,0.00
2014-11-19,26.1,20.5,15.5,18.8,14.2,9.7,88,76,65,30.04,29.82,15,4,23,0.00
2014-11-20,22.8,16.5,7.3,13.9,6.7,0.6,84,66,42,30.40,30.00,14,4,19,0.00
2014-11-21,31.5,19.1,0.5,20.0,7.5,-3.0,90,63,42,30.49,30.16,14,3,18,0.00
2014-11-22,50.1,39.2,30.3,49.0,37.7,21.1,98,94,65,30.16,29.77,13,4,17,0.00
2014-11-23,49.7,48.2,44.8,48.9,47.3,44.3,98,97,93,29.77,29.12,14,4,16,0.85
2014-11-24,45.0,33.0,20.6,44.5,32.0,19.2,98,96,94,29.82,29.07,13,4,18,0.05
2014-11-25,22.9,19.2,11.1,19.4,16.8,9.4,94,90,84,30.25,29.82,8,2,0,0.00
2014-11-26,23.1,14.6,7.1,21.2,12.8,5.0,95,92,89,30.32,30.20,4,0,0,0.00
2014-11-27,22.7,15.5,2.8,20.8,12.1,0.4,95,86,77,30.49,30.32,9,2,14,0.00
2014-11-28,29.0,20.7,11.1,27.8,17.0,6.4,95,85,75,30.45,29.87,12,3,15,0.00
2014-11-29,44.3,36.7,27.8,42.1,34.8,26.8,98,93,83,29.87,29.54,10,3,13,0.04
2014-11-30,42.1,28.3,14.4,41.6,23.8,6.2,98,84,66,30.44,29.60,14,6,22,0.01
2014-12-1,14.4,9.5,3.7,6.7,0.5,-2.0,81,66,54,30.77,30.44,14,4,19,0.00
2014-12-2,31.6,22.9,8.2,22.3,16.8,3.3,86,77,66,30.65,30.07,12,3,14,0.00
2014-12-3,31.4,25.0,18.0,21.6,16.0,10.2,86,69,47,30.42,30.06,18,2,18,0.00
2014-12-4,29.1,22.1,15.1,25.4,15.4,10.3,87,76,60,30.50,30.30,6,1,0,0.00
2014-12-5,35.1,32.3,29.2,32.5,29.8,25.3,96,91,83,30.35,30.22,8,1,0,0.00
2014-12-6,34.6,27.7,17.7,30.2,23.6,14.8,93,85,66,30.75,30.35,11,2,17,0.00
2014-12-7,34.8,27.7,15.7,27.3,21.4,13.8,94,78,53,30.72,30.28,13,3,15,0.00
2014-12-8,34.2,32.7,31.0,33.4,31.4,27.3,97,95,86,30.27,29.99,14,3,16,0.40
2014-12-9,34.5,30.9,26.8,30.3,28.1,23.8,95,89,80,30.47,30.19,17,4,17,0.00
2014-12-10,26.7,24.0,21.7,23.6,21.4,19.3,91,89,87,30.49,30.35,4,1,0,0.00
2014-12-11,30.0,23.6,20.1,25.2,21.2,18.6,95,91,82,30.35,30.27,7,2,0,0.00
2014-12-12,35.3,31.3,23.7,34.3,30.1,22.2,97,95,93,30.37,30.25,7,2,0,0.01
2014-12-13,43.7,38.8,33.1,42.9,38.2,32.3,98,98,96,30.26,30.08,5,1,0,0.00
2014-12-14,46.2,44.4,41.7,45.9,44.1,41.2,99,99,98,30.09,29.97,8,2,0,0.02
2014-12-15,45.3,44.3,41.9,45.0,43.9,41.4,99,99,98,29.96,29.68,11,2,13,0.18
2014-12-16,42.0,33.5,24.8,41.5,31.0,20.1,99,91,80,30.20,29.67,16,6,23,0.11
2014-12-17,24.8,22.2,17.1,20.3,17.5,14.2,88,82,76,30.37,30.19,15,4,19,0.00
2014-12-18,26.5,22.5,14.4,24.1,20.2,12.6,94,91,86,30.38,30.30,5,0,0,0.00
2014-12-19,26.7,25.5,22.6,23.1,21.9,20.2,92,86,81,30.38,30.31,2,0,0,0.00
2014-12-20,29.8,27.8,23.3,27.8,25.7,21.3,93,92,88,30.34,30.25,4,1,0,0.00
2014-12-21,36.2,33.5,29.6,33.5,31.4,27.6,97,92,87,30.25,29.99,13,4,17,0.01
2014-12-22,38.4,34.9,32.9,37.9,33.2,31.1,98,93,86,29.99,29.62,11,3,15,0.20
2014-12-23,42.6,39.5,37.1,42.1,38.5,36.3,99,96,91,29.78,29.54,12,3,18,0.37
2014-12-24,37.1,34.6,33.3,36.3,33.7,31.8,98,96,92,29.75,29.53,7,2,0,0.01
2014-12-25,41.0,36.0,31.2,36.0,32.2,28.0,94,86,76,29.98,29.66,12,4,17,0.00
2014-12-26,44.1,37.0,32.0,38.0,34.6,30.5,97,91,78,30.05,29.95,6,1,0,0.00
2014-12-27,45.5,35.4,24.6,45.0,29.4,20.7,98,86,1,30.17,29.87,13,3,19,0.07
2014-12-28,31.3,24.2,16.4,23.1,19.3,13.4,90,82,67,30.35,30.15,7,2,0,0.00
2014-12-29,23.5,17.9,6.6,17.9,11.1,2.3,89,75,54,30.65,30.34,11,4,15,0.00
2014-12-30,13.4,6.6,1.3,2.2,-3.3,-6.9,84,63,42,30.80,30.66,13,4,19,0.00
2014-12-31,18.3,8.8,-2.5,8.5,0.6,-6.0,82,69,50,30.69,30.12,19,6,23,0.00
2015-1-1,29.4,20.7,12.3,20.4,13.9,6.6,83,75,63,30.19,29.96,12,3,18,0.00
2015-1-2,30.6,24.6,15.8,22.4,18.2,12.1,89,77,55,30.37,30.19,6,0,0,0.00